[[{"header":{"parameterUnit":"m.s-1","parameterCategory":1,"la1":30.2992,"la2":30.254,"lo1":-89.0895,"lo2":-89.0443,"dy":0.0025,"dx":0.0025,"nx":19,"ny":19,"refTime":"2026-03-18T09:00:00:Z","depth":0,"parameterNumber":2,"parameterNumberName":"U-component_of_WINDS"},"data":[0,0,0,1.4296,1.4299,1.4451,1.4451,1.4629,1.4631,0,0,0,0,0,0,0,0,0,0,0,1.4244,1.4245,1.4296,1.43,1.445,1.4451,1.4629,1.4631,0,0,0,0,0,0,0,0,0,0,0,1.4243,1.4245,1.4246,1.43,1.445,1.4451,1.4629,1.452,0,0,0,0,0,0,0,0,0,0,1.4375,1.432,1.4244,1.4246,1.4301,1.445,1.4451,1.4515,1.4527,1.4555,0,1.4579,0,1.4608,1.4642,1.4643,0,0,0,1.4305,1.431,1.4358,1.4246,1.4302,1.445,1.4384,1.4522,1.4535,1.457,1.4582,1.4589,1.4611,1.4643,1.4644,1.4789,1.479,0,0,1.4297,1.4267,1.4349,1.4366,1.4343,1.4379,1.4389,1.453,1.454,1.4583,1.4593,1.4614,1.4644,1.4645,1.4789,1.4789,0,0,0,1.4269,1.4261,1.4305,1.4358,1.4387,1.4383,1.4394,1.4534,1.4551,1.4595,1.4616,1.4645,1.4647,1.4789,1.4789,1.4779,0,0,0,1.4264,1.4245,1.4301,1.4284,1.4384,1.4463,1.4395,1.4541,1.4558,1.4615,1.4645,1.4649,1.4788,1.4789,1.4779,1.4779,0,0,0,1.4237,1.4241,1.4261,1.4282,1.4347,1.4461,1.4486,1.4545,1.457,1.4643,1.4649,1.4788,1.4789,1.4778,1.4779,1.4807,0,0,0,1.4198,1.4251,1.426,1.4327,1.4345,1.4454,1.4486,1.4569,1.463,1.4646,1.4788,1.4789,1.4778,1.4778,1.4806,1.4824,1.483,0,0,1.4248,1.4256,1.4298,1.431,1.441,1.4434,1.4532,1.4617,1.4651,1.4741,1.4745,1.4779,1.4778,1.4807,1.4873,1.4877,0,0,0,1.4303,1.4333,1.4366,1.4423,1.4488,1.4544,1.4617,1.4647,1.4725,1.4692,1.4799,1.48,1.4817,1.4827,1.4831,1.4847,1.4793,1.4793,1.4793,1.4331,1.4371,1.4442,1.45,1.4554,1.4628,1.4675,1.4729,1.4755,1.478,1.4806,1.4841,1.4852,1.4854,1.4871,1.482,1.482,1.482,1.482,1.4406,1.4452,1.4484,1.4564,1.4606,1.4673,1.4745,1.4761,1.4828,1.4825,1.4843,1.4834,1.4857,1.4874,1.482,1.482,1.482,1.482,1.482,1.4426,1.4456,1.4492,1.4577,1.4637,1.4694,1.4757,1.4793,1.4828,1.4846,1.4876,1.4876,1.4879,1.4858,1.4858,1.4858,1.4858,1.4858,1.4858,1.4432,1.4474,1.4523,1.4595,1.4635,1.4692,1.4765,1.4805,1.4858,1.488,1.488,1.4901,1.4853,1.4839,1.486,1.486,1.486,1.486,1.4859,1.449,1.4483,1.4557,1.4597,1.4684,1.474,1.4786,1.4863,1.4902,1.493,1.4949,1.4907,1.4918,1.4915,1.4904,1.4941,1.4941,1.4941,1.4941,1.4506,1.4515,1.4598,1.4659,1.4723,1.4771,1.4852,1.4908,1.4965,1.4991,1.4991,1.4979,1.4975,1.4988,1.4984,1.4974,1.5028,1.5028,1.5028,1.4542,1.4559,1.4621,1.4677,1.4747,1.4806,1.4882,1.4949,1.5013,1.5033,1.5011,1.5007,1.4989,1.4981,1.4999,1.4992,1.4974,0,0]},{"header":{"parameterUnit":"m.s-1","parameterCategory":1,"la1":30.2992,"la2":30.254,"lo1":-89.0895,"lo2":-89.0443,"dy":0.0025,"dx":0.0025,"nx":19,"ny":19,"refTime":"2026-03-18T09:00:00:Z","depth":0,"parameterNumber":3,"parameterNumberName":"V-component_of_WINDS"},"data":[0,0,0,2.8681,2.8681,2.8659,2.8659,2.8646,2.8646,0,0,0,0,0,0,0,0,0,0,0,2.8699,2.8699,2.8681,2.8681,2.8659,2.8659,2.8646,2.8646,0,0,0,0,0,0,0,0,0,0,0,2.8699,2.8699,2.8699,2.8681,2.8659,2.8659,2.8646,2.8656,0,0,0,0,0,0,0,0,0,0,2.8675,2.8703,2.8699,2.8699,2.8681,2.8659,2.8659,2.8657,2.8656,2.8663,0,2.8674,0,2.866,2.8646,2.8646,0,0,0,2.8672,2.8704,2.8688,2.8699,2.8681,2.8659,2.8666,2.8656,2.8655,2.8662,2.8673,2.8672,2.8659,2.8646,2.8646,2.8717,2.8718,0,0,2.8673,2.8701,2.8688,2.8688,2.8694,2.8667,2.8666,2.8655,2.8669,2.8673,2.8672,2.8659,2.8646,2.8646,2.8716,2.8717,0,0,0,2.8683,2.8702,2.8686,2.8689,2.8684,2.8667,2.8665,2.8669,2.8662,2.8671,2.8659,2.8646,2.8646,2.8715,2.8717,2.8779,0,0,0,2.8683,2.8707,2.8687,2.8703,2.8684,2.8677,2.868,2.8663,2.8661,2.8659,2.8646,2.8646,2.8715,2.8716,2.8775,2.8804,0,0,0,2.8696,2.8708,2.8709,2.8705,2.8696,2.8676,2.8668,2.8662,2.8654,2.8646,2.8646,2.8714,2.8716,2.8772,2.8798,2.8828,0,0,0,2.8718,2.8766,2.8711,2.8759,2.8697,2.8716,2.8668,2.868,2.8682,2.8646,2.8715,2.8716,2.8771,2.8795,2.8825,2.8858,2.8875,0,0,2.8794,2.8776,2.8802,2.8752,2.8788,2.8717,2.8761,2.8736,2.871,2.8715,2.8717,2.8776,2.8798,2.8828,2.8961,2.8974,0,0,0,2.8835,2.8854,2.8858,2.8861,2.8843,2.8829,2.8794,2.8784,2.8787,2.8719,2.8795,2.8807,2.8824,2.8838,2.8849,2.886,2.8725,2.8724,2.8724,2.8982,2.8945,2.8985,2.8946,2.8949,2.8911,2.8909,2.8889,2.8852,2.8871,2.8872,2.8957,2.8975,2.8983,2.8995,2.8887,2.8888,2.8888,2.8888,2.9088,2.9108,2.9056,2.9077,2.9037,2.9053,2.9018,2.899,2.8998,2.8954,2.8966,2.8921,2.8999,2.9008,2.8892,2.8891,2.8891,2.8891,2.889,2.9178,2.9181,2.9169,2.9167,2.9168,2.9126,2.9135,2.9099,2.9064,2.9077,2.9072,2.9071,2.9064,2.9078,2.9078,2.9078,2.9078,2.9079,2.9079,2.9277,2.9261,2.9273,2.9257,2.9252,2.9241,2.9202,2.9195,2.9178,2.9151,2.915,2.911,2.9015,2.899,2.9083,2.9082,2.9082,2.9081,2.9081,2.9396,2.9363,2.9383,2.9378,2.9354,2.9356,2.9309,2.9298,2.9288,2.9292,2.9249,2.9185,2.9164,2.9154,2.9134,2.9258,2.9258,2.9258,2.9258,2.9472,2.9458,2.9468,2.9462,2.9452,2.9411,2.9431,2.94,2.9362,2.9352,2.9328,2.9299,2.9291,2.9274,2.9262,2.9242,2.9392,2.9392,2.9392,2.9542,2.9525,2.955,2.9514,2.9491,2.9472,2.9488,2.9481,2.9431,2.9396,2.9342,2.9337,2.9288,2.9275,2.924,2.9222,2.9185,0,0]}]]